Regional Weather Roundup
Issued by NWS

Home | Current Version | Previous Version | Graphics & Text | Print | Product List | Glossary On
Versions: 1 2 3 4 5 6 7 8 9 10 11 12 13 14 15 16 17 18 19 20 21 22 23 24 25 26 27 28
000
ASUS45 KSLC 171710
RWRUT

UTAH REGIONAL WEATHER ROUNDUP
NATIONAL WEATHER SERVICE SALT LAKE CITY UT
1000 AM MST FRI NOV 17 2017

UTZ001>011-023>025-171800-

NORTHERN UTAH

CITY           SKY/WX    TMP DP  RH WIND       PRES   REMARKS
BRIGHAM CITY   CLOUDY    43  36  77 W3        29.79R
HILL AFB       CLOUDY    38  35  91 SE9       29.78F WCI  31
LOGAN          LGT RAIN  38  36  92 N14       29.80R WCI  30
OGDEN          CLOUDY    38  36  92 SE12      29.77F WCI  30
SALT LAKE CITY RAIN      40  37  89 NW5       29.84R FOG
TOOELE VALLEY  RAIN      37  37 100 NE5       29.84S WCI  34
WENDOVER       MOSUNNY   49  36  61 NW20G29   29.81R
HEBER CITY     MIX PCPN  41  32  70 N16G22    29.74R
WEST JORDAN    CLOUDY    33  33 100 CALM      29.85R

$$

UTZ011>015-024>027-171800-

CENTRAL/NORTHEAST UTAH

CITY           SKY/WX    TMP DP  RH WIND       PRES   REMARKS
PROVO AIRPORT  CLOUDY    45  38  76 NW18G24   29.78R
MOAB/CANYONLAN CLOUDY    65  35  33 SW28G37   29.76S
DELTA          PTSUNNY   55  36  47 S30G36    29.79S
PRICE          PTSUNNY   52  35  52 SE6       29.77F
ROOSEVELT      CLOUDY    54  37  54 W12       29.73F
VERNAL         CLOUDY    52  37  56 W10       29.72S

$$

UTZ013>016-019>022-027-171800-

SOUTHERN UTAH

CITY           SKY/WX    TMP DP  RH WIND       PRES   REMARKS
BRYCE CANYON   CLOUDY    48  33  56 W24G30    29.99R
CEDAR CITY     CLOUDY    56  36  47 S23G35    29.91S
MILFORD        CLOUDY    55  38  52 S21G29    29.87S
ST GEORGE      CLOUDY    67  39  35 CALM      29.90R
HANKSVILLE     PTSUNNY   63  34  34 SW21G29   29.83S
BLANDING         N/A     58  32  37 SW14G22   30.01S

$$

REGIONAL REPORTS     COLORADO/ARIZONA

CITY           SKY/WX    TMP DP  RH WIND       PRES   REMARKS
CRAIG, CO      CLOUDY    54  31  41 SW26G43   29.71S
GRAND JUNCTION CLOUDY    63  34  33 SW9       29.79R
RIFLE, CO      CLOUDY    57  33  40 W13       29.77F
MONTROSE, CO   CLOUDY    59  32  36 SW25G33   29.88S
CORTEZ, CO     CLOUDY    56  32  40 SW18G28   30.00F
COLORADO CITY    N/A     61  37  41 SW16G24   30.00R
PAGE, AZ       MOSUNNY   65  37  35 SW12G23   29.91R
GRAND CANYON   LGT RAIN  48  36  63 SW15      30.10R
KINGMAN, AZ    CLOUDY    65  41  41 SW21      30.02S
FLAGSTAFF, AZ  CLOUDY    48  29  47 SW18G26   30.15S

$$

REGIONAL REPORTS    NEVADA/IDAHO/WYOMING

CITY           SKY/WX    TMP DP  RH WIND       PRES   REMARKS
LAS VEGAS, NV  PTSUNNY   70  42  36 SW13G26   29.89R
ELY, NY        CLOUDY    49  32  52 S8        29.85S
ELKO, NV       LGT SNOW  35  28  75 NW8       29.94R WCI  29
POCATELLO, ID  CLOUDY    36  33  89 SW23G31   29.82R WCI  24
BURLEY, ID     CLOUDY    34  32  92 W10       29.86R WCI  26
FORT BRIDGER,  SNOW      32  32 100 W25G35    29.82S VSB<1/4 WCI  19
EVANSTON, WY   SNOW      31  31 100 W8        29.78F VSB 1/4 WCI  23
ROCK SPRINGS,  LGT SNOW  31  30  96 W14G25    29.78S FOG     WCI  21

$$




USA.gov is the U.S. government's official web portal to all federal, state and local government web resources and services.